• In Moldova, Republic
  • List of Countries
  • For 7 days
  • Water Temperature
  • Satellite Maps
  • Weather Map
  • Weather Widgets
  • user-avatar
    Login

    Hourly Weather Albany

    Today, 25 February, Saturday

    Time Temperature Precipitation Wind Pressure Humidity
    00:00 +21°C° 0 mm 6 mps 761 mmHg 69%
    01:00 +21°C° 0 mm 5 mps 760 mmHg 66%
    02:00 +21°C° 0 mm 5 mps 760 mmHg 69%
    03:00 +21°C° 0 mm 5 mps 760 mmHg 65%
    04:00 +21°C° 0 mm 5 mps 760 mmHg 61%
    05:00 +21°C° 0 mm 5 mps 759 mmHg 56%
    06:00 +22°C° 0 mm 5 mps 759 mmHg 50%
    07:00 +25°C° 0 mm 5 mps 759 mmHg 44%
    08:00 +26°C° 0 mm 5 mps 759 mmHg 39%
    09:00 +29°C° 0 mm 4 mps 759 mmHg 34%
    10:00 +32°C° 0 mm 4 mps 758 mmHg 29%
    11:00 +34°C° 0 mm 4 mps 758 mmHg 24%
    12:00 +36°C° 0 mm 4 mps 757 mmHg 22%
    13:00 +37°C° 0 mm 4 mps 757 mmHg 20%
    14:00 +38°C° 0 mm 3 mps 756 mmHg 17%
    15:00 +37°C° 0 mm 3 mps 756 mmHg 21%
    16:00 +36°C° 0 mm 4 mps 756 mmHg 24%
    17:00 +34°C° 0 mm 4 mps 755 mmHg 27%
    18:00 +30°C° 0 mm 3 mps 755 mmHg 36%
    19:00 +27°C° 0 mm 3 mps 755 mmHg 45%
    20:00 +24°C° 0 mm 3 mps 755 mmHg 55%
    21:00 +22°C° 0 mm 3 mps 755 mmHg 60%
    22:00 +22°C° 0 mm 3 mps 755 mmHg 66%
    23:00 +21°C° 0 mm 4 mps 755 mmHg 71%

    Tomorrow, 26 February, Sunday

    Time Temperature Precipitation Wind Pressure Humidity
    00:00 +20°C° 0 mm 4 mps 755 mmHg 77%
    01:00 +20°C° 0 mm 4 mps 755 mmHg 83%
    02:00 +19°C° 0 mm 4 mps 755 mmHg 89%
    03:00 +19°C° 0 mm 4 mps 755 mmHg 88%
    04:00 +19°C° 0 mm 3 mps 755 mmHg 87%
    05:00 +19°C° 0 mm 3 mps 755 mmHg 87%
    06:00 +19°C° 0 mm 3 mps 756 mmHg 82%
    07:00 +20°C° 0 mm 3 mps 756 mmHg 76%
    08:00 +20°C° 0 mm 3 mps 756 mmHg 71%
    09:00 +22°C° 0 mm 3 mps 756 mmHg 65%
    10:00 +24°C° 0 mm 3 mps 756 mmHg 58%
    11:00 +26°C° 0 mm 3 mps 756 mmHg 52%
    12:00 +26°C° 0 mm 3 mps 756 mmHg 51%
    13:00 +26°C° 0 mm 3 mps 755 mmHg 51%
    14:00 +26°C° 0 mm 3 mps 755 mmHg 50%
    15:00 +25°C° 0 mm 4 mps 755 mmHg 54%
    16:00 +23°C° 0 mm 4 mps 755 mmHg 57%
    17:00 +22°C° 0 mm 4 mps 755 mmHg 61%
    18:00 +21°C° 0 mm 4 mps 756 mmHg 68%
    19:00 +20°C° 0 mm 3 mps 756 mmHg 75%
    20:00 +18°C° 0 mm 3 mps 757 mmHg 82%
    21:00 +18°C° 0 mm 2 mps 757 mmHg 85%
    22:00 +17°C° 0 mm 2 mps 757 mmHg 88%
    23:00 +17°C° 0 mm 2 mps 757 mmHg 92%

    Day after tomorrow, 27 February, Monday

    Time Temperature Precipitation Wind Pressure Humidity
    00:00 +17°C° 0 mm 2 mps 757 mmHg 93%
    01:00 +16°C° 0 mm 1 mps 757 mmHg 94%
    02:00 +16°C° 0 mm 1 mps 757 mmHg 95%
    03:00 +16°C° 0 mm 1 mps 757 mmHg 95%
    04:00 +16°C° 0 mm 1 mps 758 mmHg 95%
    05:00 +15°C° 0 mm 1 mps 758 mmHg 95%
    06:00 +18°C° 0 mm 1 mps 758 mmHg 89%
    07:00 +20°C° 0 mm 1 mps 758 mmHg 83%
    08:00 +21°C° 0 mm 1 mps 759 mmHg 77%
    09:00 +23°C° 0 mm 2 mps 759 mmHg 71%
    10:00 +24°C° 0 mm 2 mps 759 mmHg 64%
    11:00 +25°C° 0 mm 2 mps 759 mmHg 57%
    12:00 +26°C° 0 mm 3 mps 759 mmHg 57%
    13:00 +26°C° 0 mm 3 mps 759 mmHg 57%
    14:00 +26°C° 0 mm 3 mps 758 mmHg 57%
    15:00 +25°C° 0.1 mm 3 mps 759 mmHg 64%
    16:00 +24°C° 0.1 mm 3 mps 759 mmHg 71%
    17:00 +21°C° 0.1 mm 3 mps 759 mmHg 77%
    18:00 +21°C° 0.1 mm 3 mps 759 mmHg 82%
    19:00 +20°C° 0.1 mm 3 mps 760 mmHg 87%
    20:00 +19°C° 0.1 mm 3 mps 760 mmHg 91%
    21:00 +19°C° 0.1 mm 3 mps 760 mmHg 91%
    22:00 +19°C° 0.1 mm 4 mps 761 mmHg 92%
    23:00 +19°C° 0.1 mm 4 mps 761 mmHg 92%

    28 February, Tuesday

    Time Temperature Precipitation Wind Pressure Humidity
    00:00 +19°C° 0.1 mm 4 mps 761 mmHg 92%
    01:00 +19°C° 0.1 mm 4 mps 760 mmHg 92%
    02:00 +19°C° 0.1 mm 3 mps 760 mmHg 92%
    03:00 +19°C° 0 mm 3 mps 760 mmHg 91%
    04:00 +18°C° 0 mm 3 mps 760 mmHg 91%
    05:00 +18°C° 0 mm 3 mps 760 mmHg 91%
    06:00 +18°C° 0 mm 3 mps 761 mmHg 90%
    07:00 +19°C° 0 mm 4 mps 761 mmHg 89%
    08:00 +19°C° 0 mm 4 mps 762 mmHg 87%
    09:00 +19°C° 0 mm 4 mps 762 mmHg 84%
    10:00 +20°C° 0 mm 4 mps 762 mmHg 80%
    11:00 +20°C° 0 mm 4 mps 761 mmHg 76%
    12:00 +21°C° 0 mm 4 mps 761 mmHg 71%
    13:00 +22°C° 0 mm 4 mps 761 mmHg 67%
    14:00 +23°C° 0 mm 4 mps 760 mmHg 62%
    15:00 +22°C° 0 mm 5 mps 760 mmHg 63%
    16:00 +22°C° 0 mm 5 mps 760 mmHg 64%
    17:00 +21°C° 0 mm 5 mps 760 mmHg 66%
    18:00 +20°C° 0 mm 5 mps 760 mmHg 70%
    19:00 +19°C° 0 mm 5 mps 761 mmHg 74%
    20:00 +17°C° 0 mm 5 mps 761 mmHg 79%
    21:00 +17°C° 0 mm 5 mps 761 mmHg 80%
    22:00 +17°C° 0 mm 5 mps 761 mmHg 82%
    23:00 +16°C° 0 mm 5 mps 761 mmHg 84%

    1 March, Wednesday

    Time Temperature Precipitation Wind Pressure Humidity
    00:00 +17°C° 0 mm 5 mps 761 mmHg 84%
    01:00 +18°C° 0 mm 4 mps 761 mmHg 84%
    02:00 +18°C° 0 mm 4 mps 760 mmHg 84%
    03:00 +18°C° 0 mm 4 mps 760 mmHg 83%
    04:00 +18°C° 0 mm 4 mps 760 mmHg 83%
    05:00 +18°C° 0 mm 4 mps 760 mmHg 83%
    06:00 +19°C° 0 mm 4 mps 761 mmHg 81%
    07:00 +19°C° 0 mm 4 mps 761 mmHg 80%
    08:00 +19°C° 0 mm 4 mps 761 mmHg 78%
    09:00 +21°C° 0 mm 5 mps 761 mmHg 74%
    10:00 +22°C° 0 mm 5 mps 760 mmHg 69%
    11:00 +23°C° 0 mm 5 mps 760 mmHg 65%
    12:00 +23°C° 0 mm 5 mps 760 mmHg 64%
    13:00 +25°C° 0 mm 5 mps 759 mmHg 64%
    14:00 +24°C° 0 mm 6 mps 759 mmHg 63%
    15:00 +23°C° 0 mm 6 mps 759 mmHg 66%
    16:00 +22°C° 0 mm 6 mps 759 mmHg 69%
    17:00 +22°C° 0 mm 6 mps 758 mmHg 72%
    18:00 +21°C° 0 mm 6 mps 759 mmHg 76%
    19:00 +20°C° 0 mm 6 mps 759 mmHg 80%
    20:00 +19°C° 0 mm 6 mps 760 mmHg 84%
    21:00 +19°C° 0 mm 6 mps 760 mmHg 84%
    22:00 +19°C° 0 mm 5 mps 760 mmHg 84%
    23:00 +19°C° 0 mm 5 mps 760 mmHg 84%

    2 March, Thursday

    Time Temperature Precipitation Wind Pressure Humidity
    00:00 +19°C° 0 mm 5 mps 759 mmHg 84%
    01:00 +19°C° 0 mm 5 mps 759 mmHg 85%
    02:00 +19°C° 0 mm 4 mps 759 mmHg 85%
    03:00 +19°C° 0 mm 4 mps 759 mmHg 86%
    04:00 +19°C° 0 mm 4 mps 759 mmHg 88%
    05:00 +19°C° 0 mm 4 mps 759 mmHg 90%
    06:00 +19°C° 0 mm 4 mps 759 mmHg 88%
    07:00 +19°C° 0 mm 4 mps 759 mmHg 86%
    08:00 +20°C° 0 mm 4 mps 759 mmHg 85%
    09:00 +21°C° 0 mm 4 mps 759 mmHg 82%
    10:00 +21°C° 0 mm 3 mps 759 mmHg 79%
    11:00 +22°C° 0 mm 3 mps 759 mmHg 76%
    12:00 +24°C° 0 mm 3 mps 758 mmHg 74%
    13:00 +23°C° 0 mm 4 mps 758 mmHg 72%
    14:00 +25°C° 0 mm 4 mps 758 mmHg 71%
    15:00 +23°C° 0 mm 4 mps 758 mmHg 73%
    16:00 +22°C° 0 mm 4 mps 758 mmHg 76%
    17:00 +22°C° 0 mm 4 mps 758 mmHg 78%
    18:00 +21°C° 0 mm 4 mps 758 mmHg 83%
    19:00 +20°C° 0 mm 4 mps 759 mmHg 88%
    20:00 +19°C° 0 mm 4 mps 759 mmHg 93%
    21:00 +19°C° 0 mm 4 mps 759 mmHg 91%
    22:00 +19°C° 0 mm 4 mps 759 mmHg 89%
    23:00 +20°C° 0 mm 4 mps 759 mmHg 88%
    Show more